470P/PanSTARRS (2014)

Japanese version
Home page
Updated on March 24, 2025

---------------------------------------------------------------------

* Profile

Designation 470P/2014 W1
Discovery Date November 17, 2014
Magnitude 20.9 mag
Discoverer Pan-STARRS 1 telescope (Haleakala)

* Pictures

* Orbital Elements

                    Epoch = 2014 Aug. 11.0 TT
     T = 2014 Aug.  1.14065 TT        Peri. = 150.36615
     e = 0.3962170                    Node  = 247.24880 2000.0
     q = 2.6622579 AU                 Incl. =   8.80881
       a =  4.4092961 AU   n = 0.10645110   P =   9.26 years

* Magnitudes Graph

        m1 = 13.5 + 5 log d + 10.0 log r

---------------------------------------------------------------------

The orbital elements are printed on CBET 5288.
The magnitudes graphs are made with Comet for Windows.

---------------------------------------------------------------------

Copyright(C) Seiichi Yoshida (comet@aerith.net). All rights reserved.